Flag for Canada Weather past 2 weeks in Kelowna, British Columbia, Canada

Now
45 °F

Overcast.


Feels Like: 37 °F
Forecast: 22 / 38 °F
Wind: 18 mph from North

Location: Kelowna Airport

Current Time: Feb 27, 2015 at 2:01:23 PM

Latest Report: Feb 27, 2015 at 1:00 PM


Visibility: 9 mi

Pressure: 29.95 "Hg

Humidity: 46%

Dew point: 25 °F

Location of KelownaLocation

Historic Weather in Kelowna — Graph

°F

Kelowna temperature yesterday

Maximum temperature yesterday: 43 °F (at 1:00 PM)
Minimum temperature yesterday: 28 °F (at 5:00 AM)
Average temperature yesterday: 36 °F

Past Weeks' High & Low Weather Summary

 TemperatureHumidityPressure
High54 °F (Feb 14, 12:00 PM)100% (Feb 12, 7:00 PM)30.59 "Hg (Feb 12, 7:00 PM)
Low19 °F (Feb 22, 4:00 AM)22% (Feb 21, 3:00 PM)29.93 "Hg (Feb 27, 3:49 AM)
Average35 °F80%30.33 "Hg
* Reported Feb 12 12:00 Noon — Feb 27 12:59 PM, Kelowna, Weather by CustomWeather, © 2015

Note: Actual official high and low records may vary slightly from our data, if they occured in-between our weather recording intervals... More about our weather records

Advertising

Kelowna weather history for previous 24 hours

 ConditionsComfort  
Time TempWeatherWind HumidityBarometerVisibility
12:59 PM
Fri, Feb 27
45 °FOvercast.18 mph46%29.95 "Hg9 mi
12:00 PM43 °FPartly sunny.7 mph61%29.97 "Hg9 mi
11:00 AM39 °FMostly cloudy.3 mph81%29.98 "Hg9 mi
10:00 AM37 °FLight rain. Overcast.5 mph87%29.98 "Hg9 mi
9:54 AM37 °FLight rain. Mostly cloudy.6 mph87%29.98 "Hg9 mi
9:00 AM36 °FMostly cloudy.No wind87%29.97 "Hg9 mi
8:00 AM34 °FLight rain. Mostly cloudy.No wind93%29.96 "Hg9 mi
7:00 AM34 °FLight rain. Mostly cloudy.8 mph93%29.94 "Hg9 mi
6:00 AM36 °FMostly cloudy.12 mph87%29.94 "Hg9 mi
5:00 AM36 °FOvercast.15 mph87%29.93 "Hg9 mi
4:00 AM37 °FOvercast.12 mph75%29.93 "Hg9 mi
3:49 AM37 °FOvercast.14 mph75%29.93 "Hg9 mi
3:00 AM34 °FOvercast.2 mph87%29.93 "Hg9 mi
2:00 AM34 °FOvercast.No wind81%29.94 "Hg9 mi
1:00 AM34 °FOvercast.3 mph81%29.94 "Hg9 mi
12:00 AM34 °FMostly cloudy.2 mph81%29.95 "Hg9 mi
11:00 PM
Thu, Feb 26
36 °FMostly cloudy.2 mph75%29.97 "Hg9 mi
10:00 PM36 °FOvercast.2 mph75%29.98 "Hg9 mi
9:00 PM36 °FOvercast.No wind75%29.99 "Hg9 mi
8:00 PM36 °FMostly cloudy.3 mph75%30.00 "Hg9 mi
7:00 PM39 °FOvercast.No wind61%30.01 "Hg9 mi
6:00 PM39 °FOvercast.3 mph61%30.02 "Hg9 mi
5:00 PM41 °FOvercast.3 mph57%30.03 "Hg9 mi
4:00 PM43 °FOvercast.6 mph53%30.05 "Hg9 mi
3:00 PM43 °FPartly sunny.5 mph53%30.06 "Hg9 mi
2:00 PM43 °FOvercast.6 mph53%30.09 "Hg9 mi
Weather by CustomWeather, © 2015

See weather overviewHow to use our weather pages